K0CPM-2 Weather Reports


Display with metric or nautical units.
time (UTC)temp
F
wind
direction
speed
MPH
gust
MPH
rain 1hr
in
rain 24hr
in
rain mn
in
humidity
%
barometer
mb
20260509033010 68 172 0.0 1.0 0.00 0.73 0.73 89 1008.8
20260509031510 68 355 0.0 0.0 0.00 0.73 0.73 89 1009.2
20260509030022 68 355 0.0 0.0 0.00 0.73 0.73 89 1009.3
20260509024508 69 155 0.0 1.0 0.00 0.73 0.73 98 1009.0
20260509023019 69 155 0.0 3.0 0.00 0.73 0.73 98 1008.8
20260509021508 69 160 0.0 4.0 0.00 0.73 0.73 98 1008.3
20260509020007 69 147 0.0 4.0 0.00 0.73 0.73 98 1008.7
20260509014506 69 131 0.0 4.0 0.00 0.73 0.73 98 1008.4
20260509013007 69 172 1.0 7.0 0.00 0.73 0.73 97 1008.2
20260509011506 69 215 1.0 6.0 0.00 0.73 0.73 97 1008.5
20260509010012 69 145 0.0 5.0 0.00 0.73 0.73 97 1008.4
20260509004503 69 120 0.0 3.0 0.00 0.73 0.73 97 1008.6
20260509003002 69 170 0.0 1.0 0.00 0.73 0.73 97 1008.7
20260509001607 69 135 0.0 0.0 0.00 0.73 0.73 98 1008.8
20260509000112 69 135 0.0 0.0 0.00 0.73 0.73 97 1009.2
20260508234558 69 136 0.0 1.0 0.00 0.73 0.73 97 1009.3
20260508233058 69 165 0.0 4.0 0.02 0.73 0.73 97 1009.1
20260508231558 69 127 0.0 3.0 0.02 0.73 0.73 97 1009.0
20260508230057 68 169 0.0 4.0 0.02 0.73 0.73 97 1009.1
20260508224657 68 170 1.0 6.0 0.03 0.73 0.73 97 1009.2
20260508223056 68 98 0.0 5.0 0.01 0.71 0.71 97 1009.7
20260508221555 68 150 0.0 4.0 0.02 0.71 0.71 97 1009.1
20260508220054 68 181 2.0 6.0 0.11 0.71 0.71 96 1009.3
20260508214554 68 179 0.0 3.0 0.28 0.70 0.70 96 1010.1
20260508213051 68 201 2.0 5.0 0.68 0.70 0.70 96 1010.4
20260508211550 68 193 2.0 6.0 0.69 0.69 0.69 95 1010.6
20260508210050 68 149 2.0 8.0 0.57 0.57 0.57 94 1010.8
20260508204547 69 162 1.0 5.0 0.41 0.41 0.41 93 1010.7
20260508203050 70 214 3.0 8.0 0.01 0.01 0.01 91 1009.9
20260508201543 70 256 5.0 11.0 0.00 0.00 0.00 88 1010.0
20260508200055 72 205 4.0 8.0 0.00 0.00 0.00 87 1009.4
20260508194541 73 266 4.0 8.0 0.00 0.00 0.00 87 1010.0
20260508193044 74 184 0.0 5.0 0.00 0.00 0.00 87 1010.6
20260508191541 75 269 1.0 7.0 0.00 0.00 0.00 85 1010.6
20260508190044 76 149 1.0 5.0 0.00 0.00 0.00 84 1010.4
20260508184544 77 250 1.0 6.0 0.00 0.00 0.00 84 1010.2
20260508183043 77 196 1.0 3.0 0.00 0.00 0.00 83 1010.2
20260508181541 78 165 1.0 5.0 0.00 0.00 0.00 82 1010.1
20260508180037 79 183 1.0 6.0 0.00 0.00 0.00 80 1010.0
20260508174555 79 179 1.0 7.0 0.00 0.00 0.00 79 1009.9
20260508173034 80 200 1.0 5.0 0.00 0.00 0.00 79 1010.5
20260508171534 79 68 2.0 6.0 0.00 0.00 0.00 78 1010.8
20260508170033 77 162 2.0 5.0 0.00 0.00 0.00 81 1010.7
20260508164526 77 209 2.0 6.0 0.00 0.00 0.00 82 1010.7
20260508163038 76 174 1.0 4.0 0.00 0.00 0.00 83 1010.9
20260508161523 76 163 1.0 4.0 0.00 0.00 0.00 84 1010.9
20260508160024 74 194 1.0 6.0 0.00 0.00 0.00 86 1011.2
20260508154515 73 191 2.0 6.0 0.00 0.00 0.00 87 1011.5
20260508153024 73 198 1.0 6.0 0.00 0.00 0.00 87 1011.7
20260508151523 73 186 1.0 8.0 0.00 0.00 0.00 87 1011.4
20260508150014 72 193 2.0 5.0 0.00 0.00 0.00 86 1011.3
20260508144514 73 180 0.0 7.0 0.00 0.02 0.00 85 1011.5
20260508143013 74 210 1.0 5.0 0.00 0.02 0.00 83 1011.2
20260508141510 73 181 2.0 5.0 0.00 0.02 0.00 85 1011.0
20260508140009 71 173 0.0 4.0 0.00 0.02 0.00 86 1011.3
20260508134508 71 169 0.0 3.0 0.00 0.03 0.00 86 1011.4
20260508133007 70 178 0.0 4.0 0.00 0.03 0.00 86 1011.4
20260508131507 70 146 0.0 3.0 0.00 0.03 0.00 87 1011.4
20260508130006 70 175 1.0 4.0 0.00 0.03 0.00 87 1011.8
20260508124506 70 194 0.0 3.0 0.00 0.03 0.00 88 1012.2
20260508123006 70 139 0.0 3.0 0.00 0.03 0.00 88 1012.1
20260508121503 70 187 1.0 4.0 0.00 0.03 0.00 88 1011.8
20260508120004 70 169 0.0 3.0 0.00 0.03 0.00 88 1011.2
20260508114502 70 153 0.0 3.0 0.00 0.03 0.00 87 1011.2
20260508113002 70 173 0.0 2.0 0.00 0.03 0.00 87 1011.4
20260508111601 70 188 0.0 1.0 0.00 0.03 0.00 88 1012.0
20260508110128 69 187 0.0 2.0 0.00 0.03 0.00 89 1011.7
20260508104604 69 156 0.0 3.0 0.00 0.03 0.00 89 1011.6
20260508103058 69 175 0.0 2.0 0.00 0.03 0.00 89 1011.0
20260508101600 69 169 0.0 2.0 0.00 0.03 0.00 89 1010.7
20260508100054 69 173 0.0 3.0 0.00 0.03 0.00 89 1010.4
20260508094556 70 183 1.0 3.0 0.00 0.03 0.00 89 1010.5
20260508093101 70 168 0.0 3.0 0.00 0.03 0.00 89 1010.6
20260508091551 70 146 0.0 3.0 0.00 0.03 0.00 89 1010.5
20260508090106 70 188 1.0 4.0 0.00 0.03 0.00 89 1010.4
20260508084548 71 147 0.0 2.0 0.00 0.03 0.00 89 1010.6
20260508083047 71 165 0.0 2.0 0.00 0.03 0.00 89 1010.4
20260508081548 71 174 0.0 2.0 0.00 0.03 0.00 89 1010.3
20260508080051 71 173 0.0 1.0 0.00 0.03 0.00 88 1010.4
20260508074544 71 169 0.0 1.0 0.00 0.03 0.00 89 1010.9
20260508073043 72 156 0.0 1.0 0.00 0.03 0.00 89 1010.5
20260508071542 72 155 0.0 0.0 0.00 0.03 0.00 88 1010.5
20260508070043 72 165 0.0 1.0 0.00 0.03 0.00 88 1010.4
20260508064539 72 153 0.0 1.0 0.00 0.03 0.00 89 1011.0
20260508063039 72 173 0.0 0.0 0.00 0.03 0.00 88 1010.9
20260508061537 72 155 0.0 0.0 0.00 0.03 0.00 88 1010.9
20260508060031 72 169 0.0 0.0 0.00 0.03 0.00 88 1010.9
20260508054527 72 162 0.0 1.0 0.00 0.03 0.00 89 1011.4
20260508053023 72 165 0.0 0.0 0.00 0.03 0.00 89 1011.3
20260508051519 72 183 0.0 1.0 0.00 0.03 0.00 89 1011.4
20260508050016 72 166 0.0 0.0 0.00 0.03 0.00 89 1011.6
20260508044515 72 156 0.0 0.0 0.00 0.03 0.03 89 1011.6
20260508043015 72 166 0.0 1.0 0.00 0.03 0.03 88 1011.8
20260508041512 73 177 0.0 2.0 0.00 0.03 0.03 87 1011.9
20260508040013 73 176 0.0 1.0 0.00 0.03 0.03 87 1011.6
20260508034516 73 167 0.0 3.0 0.00 0.03 0.03 87 1012.1
20260508033017 74 158 0.0 2.0 0.00 0.03 0.03 86 1012.0